Temp
85 93 97 89 63 70 67 69 81 78 81 92 94 90 86 84 77 71 95 98 97 94 91 89 83 83 83 83 83 83 83 83 83 83 83 83 83 84 84 84 84 84 84 85 84 85 84 84 84
95 91 90 75 65 62 65 73 73 80 88 93 91 91 88 80 89 90 93 96 98 96 96 92 82 83 83 83 83 83 83 83 83 83 84 83 84 84 84 84 84 84 84 85 85 85 84 84 84
91 91 72 69 73 62 64 72 76 85 91 91 88 94 87 81 91 93 98 98 99 96 96 87 83 83 83 83 83 83 83 83 83 84 84 84 84 84 84 84 84 84 84 84 84 84 84 84 84
90 82 79 69 66 72 73 75 81 87 86 91 89 80 86 95 94 97 99 100 99 99 96 85 83 84 84 84 84 84 83 83 83 84 84 84 84 84 84 84 84 84 84 84 84 84 84 84 84
87 77 66 65 61 66 74 75 84 83 85 86 88 82 81 93 99 98 98 101 100 100 94 91 83 84 83 84 84 83 84 83 84 84 84 84 84 84 84 84 84 84 84 84 84 85 85 84 84
71 75 63 64 61 66 75 81 82 81 86 83 85 82 81 94 96 98 101 100 101 99 97 91 84 84 84 84 84 83 84 83 83 84 83 84 84 84 84 84 84 84 85 84 84 85 84 84 83
74 71 67 65 62 66 74 81 77 81 85 82 89 81 85 91 97 99 102 102 101 101 97 93 92 87 83 84 84 84 84 84 83 83 84 83 84 85 85 84 85 85 85 85 85 84 84 83 83
82 78 69 74 64 65 74 73 71 74 81 93 91 80 81 91 98 100 102 102 102 100 95 93 91 93 91 89 84 84 84 83 84 84 84 84 84 84 84 84 85 85 84 85 85 84 84 83 83
90 72 68 74 74 74 73 71 69 75 85 87 91 90 93 96 98 98 97 98 98 97 94 92 97 93 85 90 87 84 84 84 84 84 84 85 91 90 89 85 85 85 85 85 85 84 84 83 83
85 74 74 78 81 82 80 78 73 73 81 83 89 94 95 95 95 94 94 94 95 93 94 99 92 88 92 91 89 86 87 87 87 88 88 83 83 87 92 87 85 85 85 85 84 85 84 86 94
87 76 82 85 89 83 78 76 83 72 77 85 85 88 91 93 93 93 94 95 94 95 97 92 86 94 93 93 95 86 84 93 91 89 87 88 93 90 92 90 90 90 86 92 91 87 81 92 97
83 77 90 90 91 86 82 86 82 81 79 92 92 92 92 91 93 94 94 95 94 95 95 93 95 89 84 96 91 86 93 94 94 94 92 91 85 89 84 84 94 92 87 92 85 89 93 90 95
84 87 91 93 92 89 88 85 84 82 90 93 92 91 91 93 94 96 97 97 95 93 95 95 93 88 88 93 94 84 94 85 94 93 94 88 85 87 88 91 93 94 94 93 89 93 93 91 95
88 89 91 93 93 90 86 87 87 87 91 89 89 90 92 93 94 94 95 94 93 94 94 95 92 89 89 92 89 88 85 93 86 87 93 93 93 85 92 92 91 94 90 94 88 92 92 89 94
91 85 89 90 93 89 88 80 77 87 88 86 88 90 92 94 95 93 95 93 94 94 95 93 94 94 91 89 92 86 93 89 85 86 90 91 91 91 90 83 91 93 91 90 90 91 94 95 96
86 87 81 89 92 91 83 69 80 85 84 84 87 90 91 93 94 95 96 95 95 95 93 93 97 94 92 90 92 96 88 89 94 80 89 90 89 90 89 91 85 92 92 94 93 85 83 93 93
85 78 78 84 92 90 80 67 81 85 83 81 87 89 90 91 93 94 96 96 95 95 92 92 94 93 91 90 93 95 92 87 92 80 84 91 91 90 84 90 91 89 93 94 92 92 83 93 94
78 79 80 80 87 89 75 76 81 84 84 80 84 87 86 87 92 94 96 97 96 95 93 92 93 91 90 91 91 95 93 87 89 92 86 90 90 90 91 92 90 89 93 93 83 90 90 88 95
87 84 78 84 90 85 82 76 83 83 84 80 80 83 82 86 94 95 96 97 96 95 91 91 90 88 90 90 91 92 90 86 87 85 92 91 92 91 87 82 89 85 85 83 90 91 89 90 94
85 84 80 85 89 88 84 82 85 87 81 78 81 81 83 87 92 93 94 95 95 93 91 89 89 87 89 92 92 94 82 92 93 86 92 93 92 91 91 87 91 87 88 89 89 87 84 89 87
84 84 82 82 85 89 86 80 80 85 88 82 86 87 87 86 89 88 92 94 95 92 91 89 88 87 88 92 90 92 91 79 92 85 92 92 93 92 92 90 86 90 90 90 89 89 85 79 93
78 88 87 84 80 75 87 73 78 83 82 84 88 89 86 85 90 89 91 93 95 93 93 90 88 87 89 90 91 84 85 87 83 92 84 91 92 92 92 91 90 89 87 88 90 93 86 80 90
82 89 84 85 81 82 81 76 76 85 82 84 87 87 86 86 90 90 91 91 93 96 95 93 89 87 89 88 88 89 86 81 88 84 85 84 87 90 93 91 91 89 89 91 91 89 88 90 81
87 85 82 83 82 72 80 79 74 76 80 83 90 89 93 92 90 92 94 91 94 98 96 94 89 86 88 88 87 87 89 87 85 85 91 91 91 91 91 92 90 90 91 90 91 89 89 87 90
83 79 68 66 68 69 83 79 74 81 84 86 89 91 93 94 91 90 90 89 93 91 96 95 89 86 87 88 88 87 87 89 89 88 90 89 91 79 89 89 88 90 89 90 90 89 89 89 90
79 80 71 58 65 71 83 71 71 83 87 89 91 94 95 96 90 90 93 90 91 92 93 95 90 87 87 88 87 88 88 91 91 91 92 93 93 84 89 91 89 90 90 91 90 90 90 91 90
78 74 87 78 81 75 76 73 79 84 84 86 87 89 93 94 95 90 89 94 92 91 94 95 93 89 89 89 88 88 88 88 92 93 91 93 85 82 91 92 91 91 91 90 87 89 89 89 89
79 86 74 77 64 63 72 68 70 75 77 82 84 79 75 81 86 86 82 90 94 95 96 96 94 91 90 91 90 90 89 89 89 91 90 92 93 88 78 89 92 91 91 90 89 91 90 89 91
77 75 79 82 78 69 66 65 79 76 79 79 72 73 74 76 76 80 88 87 88 95 95 97 96 93 91 91 91 90 90 91 90 90 90 90 91 91 90 80 92 91 91 90 88 87 91 88 88
80 79 80 70 68 76 72 64 82 80 81 79 70 66 68 71 75 78 80 83 84 79 79 93 96 96 95 93 91 91 91 91 91 89 91 91 89 90 90 91 90 90 91 90 88 88 91 89 87
MSLP
1010.65 1009.94 1008.73 1008.90 1009.10 1007.49 1006.37 1006.10 1005.33 1004.41 1003.85 1003.57 1003.97 1004.09 1005.03 1006.19 1006.88 1008.01 1010.06 1010.93 1012.00 1013.28 1014.77 1015.37 1016.00 1016.36 1016.62 1016.82 1016.91 1017.00 1016.95 1017.04 1017.13 1017.30 1017.43 1017.45 1017.45 1017.43 1017.51 1017.57 1017.51 1017.55 1017.62 1017.70 1017.73 1017.77 1017.97 1017.93 1018.04
1009.01 1009.54 1009.30 1008.93 1008.11 1006.85 1006.63 1006.45 1005.51 1004.75 1004.00 1004.31 1004.89 1004.93 1005.19 1007.11 1007.76 1008.66 1009.76 1011.31 1011.93 1013.09 1014.12 1015.19 1016.15 1016.40 1016.69 1016.93 1017.07 1017.14 1017.17 1017.27 1017.31 1017.48 1017.59 1017.58 1017.61 1017.73 1017.73 1017.74 1017.80 1017.85 1017.91 1017.91 1018.01 1018.06 1018.13 1018.25 1018.37
1009.85 1009.60 1009.63 1008.55 1007.12 1006.99 1006.66 1006.73 1005.73 1004.79 1004.72 1004.45 1004.92 1004.88 1006.32 1008.23 1008.59 1008.89 1010.39 1011.46 1011.87 1013.04 1013.77 1015.65 1016.28 1016.51 1016.79 1017.05 1017.24 1017.34 1017.47 1017.54 1017.55 1017.62 1017.69 1017.75 1017.85 1017.89 1017.98 1018.03 1018.09 1018.15 1018.22 1018.25 1018.41 1018.53 1018.48 1018.55 1018.69
1009.15 1009.64 1009.01 1007.89 1007.53 1007.60 1007.07 1006.88 1005.73 1004.99 1005.41 1005.24 1005.78 1007.00 1008.58 1008.43 1008.91 1009.64 1010.88 1011.43 1012.03 1012.76 1014.09 1016.13 1016.53 1016.71 1016.92 1017.16 1017.33 1017.49 1017.64 1017.80 1017.83 1017.84 1017.92 1017.99 1018.06 1018.16 1018.20 1018.27 1018.38 1018.46 1018.49 1018.53 1018.73 1018.71 1018.83 1018.90 1018.98
1008.99 1009.07 1008.43 1008.10 1008.82 1008.64 1008.09 1007.70 1005.97 1005.47 1005.59 1005.98 1006.05 1007.09 1008.51 1009.12 1009.45 1010.47 1011.08 1011.39 1011.83 1012.53 1014.67 1016.00 1016.68 1016.85 1017.09 1017.29 1017.51 1017.68 1017.80 1017.97 1018.03 1018.07 1018.16 1018.22 1018.25 1018.40 1018.47 1018.52 1018.60 1018.68 1018.73 1018.79 1018.89 1018.90 1019.05 1019.17 1019.29
1009.05 1008.30 1008.17 1007.98 1008.95 1009.24 1008.59 1007.52 1006.93 1006.50 1006.23 1006.99 1006.68 1007.86 1009.10 1009.89 1010.00 1010.63 1010.91 1011.24 1011.79 1012.65 1014.30 1016.01 1016.86 1017.07 1017.30 1017.59 1017.77 1017.91 1018.05 1018.19 1018.28 1018.37 1018.40 1018.46 1018.55 1018.66 1018.67 1018.78 1018.88 1018.93 1019.05 1019.11 1019.07 1019.10 1019.29 1019.46 1019.63
1008.33 1007.39 1007.28 1007.96 1008.76 1008.95 1008.50 1008.55 1008.29 1007.07 1006.51 1006.68 1006.47 1007.27 1009.06 1009.69 1010.20 1010.69 1010.78 1011.29 1011.87 1012.51 1013.97 1015.44 1016.20 1017.08 1017.57 1017.77 1017.97 1018.10 1018.22 1018.40 1018.56 1018.64 1018.65 1018.75 1018.77 1018.83 1018.87 1019.09 1019.14 1019.25 1019.27 1019.34 1019.30 1019.44 1019.69 1019.77 1019.91
1007.10 1006.44 1006.51 1006.69 1007.78 1008.51 1009.05 1009.49 1009.68 1008.45 1006.99 1006.25 1006.84 1007.51 1008.58 1009.56 1010.29 1010.72 1010.91 1011.39 1011.93 1012.90 1014.34 1014.94 1016.06 1016.27 1016.77 1017.58 1018.17 1018.33 1018.49 1018.67 1018.77 1018.85 1018.87 1018.90 1018.97 1019.08 1019.19 1019.20 1019.41 1019.48 1019.56 1019.55 1019.53 1019.63 1019.80 1019.95 1020.09
1006.02 1005.79 1005.14 1005.42 1005.99 1007.52 1009.02 1009.47 1009.93 1009.55 1007.75 1006.69 1006.63 1007.05 1008.45 1009.75 1010.32 1010.60 1011.13 1011.52 1012.31 1013.09 1014.29 1014.82 1015.15 1016.10 1017.02 1017.21 1018.15 1018.44 1018.65 1018.83 1018.88 1019.03 1019.08 1018.79 1018.25 1018.52 1018.89 1019.51 1019.69 1019.74 1019.78 1019.78 1019.76 1019.82 1019.92 1019.91 1019.90
1004.57 1005.03 1004.65 1005.42 1005.24 1005.95 1007.68 1008.51 1009.56 1009.08 1007.64 1007.05 1006.47 1007.35 1008.99 1009.84 1010.39 1010.72 1011.13 1011.70 1012.47 1013.37 1013.96 1014.23 1015.33 1016.55 1016.25 1016.81 1017.56 1017.82 1018.40 1018.63 1018.71 1018.53 1018.73 1018.68 1018.80 1018.60 1018.75 1019.62 1019.93 1019.98 1019.96 1019.97 1019.81 1019.71 1019.68 1019.30 1018.77
1003.71 1004.13 1004.41 1004.28 1004.39 1005.72 1006.90 1007.96 1008.34 1008.55 1007.63 1006.77 1007.05 1008.03 1009.19 1009.90 1010.47 1010.83 1011.27 1011.89 1012.53 1013.32 1013.56 1014.83 1015.94 1015.69 1015.74 1016.40 1016.49 1017.54 1017.83 1017.48 1018.38 1018.57 1018.67 1018.39 1018.45 1018.61 1018.97 1019.31 1019.51 1019.70 1019.87 1019.14 1019.35 1019.54 1019.69 1018.84 1018.25
1003.19 1003.85 1003.02 1003.35 1003.76 1004.70 1005.67 1006.20 1007.17 1007.22 1006.90 1006.70 1007.53 1008.45 1009.23 1009.82 1010.29 1010.69 1011.18 1011.94 1012.87 1013.37 1013.70 1014.84 1015.29 1016.22 1016.71 1016.06 1016.50 1017.08 1017.11 1017.11 1017.33 1018.07 1018.39 1018.55 1018.69 1018.71 1018.89 1018.78 1018.77 1018.94 1019.11 1019.13 1019.16 1019.11 1019.03 1019.14 1018.91
1003.34 1002.49 1002.81 1003.07 1003.29 1004.24 1005.24 1005.58 1006.15 1006.83 1006.41 1007.17 1007.87 1008.74 1009.37 1009.72 1010.22 1010.74 1011.31 1012.15 1013.15 1013.69 1014.03 1014.82 1015.77 1016.83 1016.88 1016.31 1016.47 1017.46 1017.20 1017.83 1017.74 1017.93 1018.21 1018.43 1018.69 1018.89 1018.67 1018.76 1018.64 1018.91 1019.19 1019.28 1019.23 1019.17 1019.13 1019.21 1019.01
1002.83 1002.51 1002.33 1002.41 1002.74 1003.95 1004.59 1005.16 1005.86 1006.62 1007.05 1007.64 1008.25 1008.81 1009.39 1009.64 1010.14 1010.93 1011.53 1012.37 1013.38 1013.96 1014.37 1015.20 1016.16 1017.00 1017.19 1016.80 1017.32 1017.66 1017.99 1017.62 1017.87 1018.30 1018.50 1018.59 1018.35 1018.96 1018.95 1018.90 1018.89 1018.94 1018.99 1019.15 1019.54 1019.38 1019.32 1019.31 1019.25
1002.71 1002.37 1002.41 1002.25 1002.40 1003.28 1004.18 1005.38 1006.11 1006.87 1007.55 1008.13 1008.45 1008.94 1009.37 1009.67 1010.26 1011.03 1011.69 1012.57 1013.40 1014.20 1014.59 1015.45 1015.90 1016.53 1017.07 1017.57 1017.51 1017.81 1017.56 1018.10 1017.99 1018.65 1018.93 1018.92 1018.93 1019.13 1019.12 1019.37 1018.83 1018.97 1019.77 1020.13 1020.06 1019.77 1019.43 1019.10 1019.07
1002.52 1002.13 1001.08 1001.48 1001.95 1002.82 1003.91 1005.22 1006.51 1007.46 1007.89 1008.27 1008.61 1008.99 1009.44 1009.79 1010.36 1011.14 1011.85 1012.62 1013.43 1013.86 1014.84 1015.52 1015.55 1016.39 1017.14 1017.49 1017.57 1016.91 1017.66 1018.23 1017.71 1018.81 1018.80 1019.24 1019.52 1019.54 1019.57 1019.29 1019.33 1019.57 1019.67 1019.43 1019.46 1019.65 1019.63 1019.11 1019.04
1001.73 1000.60 1000.49 1000.77 1001.53 1002.30 1003.89 1005.67 1006.48 1007.45 1008.15 1008.47 1008.74 1009.01 1009.40 1009.90 1010.43 1011.21 1011.93 1012.64 1013.45 1013.93 1015.00 1015.58 1015.80 1016.40 1017.13 1017.73 1017.46 1017.06 1017.61 1018.37 1018.10 1018.77 1018.83 1019.01 1019.31 1019.59 1019.59 1019.19 1019.53 1019.97 1019.53 1019.28 1019.27 1019.55 1020.10 1019.33 1018.98
1000.21 999.79 1000.18 999.93 1001.23 1001.59 1003.01 1002.82 1006.45 1007.20 1007.89 1008.70 1008.77 1009.14 1009.42 1009.78 1010.18 1011.12 1011.80 1012.47 1013.31 1014.03 1015.10 1015.68 1016.11 1016.61 1017.29 1017.68 1017.67 1017.15 1017.74 1018.21 1018.19 1017.80 1018.65 1019.07 1019.29 1019.56 1019.45 1019.18 1019.77 1019.71 1019.31 1019.42 1019.89 1019.80 1019.79 1019.48 1018.81
999.69 999.27 999.46 999.82 1000.48 1001.26 1001.81 1003.65 1004.56 1006.78 1007.83 1008.80 1009.15 1009.32 1009.77 1009.86 1009.97 1010.97 1011.56 1012.33 1013.09 1013.99 1015.04 1015.77 1016.33 1017.02 1017.37 1017.57 1017.48 1017.24 1017.57 1018.09 1018.16 1018.45 1018.43 1018.97 1018.97 1019.47 1019.90 1019.81 1019.84 1019.74 1019.64 1019.79 1020.26 1020.26 1020.07 1019.54 1019.41
999.78 998.91 999.29 999.66 1000.35 1000.92 1001.34 1002.62 1004.03 1005.29 1007.15 1008.45 1008.88 1009.38 1009.49 1009.42 1009.80 1010.77 1011.36 1012.19 1012.96 1013.93 1014.94 1015.75 1016.39 1017.17 1017.46 1017.29 1017.18 1016.99 1017.56 1017.77 1017.87 1018.43 1018.41 1018.63 1018.98 1019.49 1019.66 1019.48 1019.40 1019.43 1019.81 1020.28 1020.31 1020.22 1020.20 1019.71 1020.09
999.81 998.49 998.63 999.57 1001.00 1001.03 1001.24 1002.25 1004.15 1005.23 1005.72 1006.65 1007.99 1008.45 1008.59 1009.26 1009.63 1010.52 1010.96 1011.75 1012.62 1013.68 1014.65 1015.51 1016.26 1016.97 1017.35 1016.99 1017.35 1017.47 1017.69 1018.57 1017.95 1018.59 1018.44 1018.67 1018.86 1019.31 1019.31 1019.61 1019.77 1019.57 1019.58 1020.13 1020.37 1020.28 1020.09 1020.41 1019.83
999.84 999.44 999.05 999.73 1000.83 1000.15 1000.93 1000.50 1002.87 1003.93 1005.29 1006.01 1006.47 1007.31 1008.16 1009.13 1009.33 1010.14 1010.60 1011.16 1011.95 1013.13 1014.25 1015.22 1016.18 1016.74 1017.29 1017.28 1017.21 1018.26 1018.35 1017.68 1017.69 1017.95 1018.05 1018.55 1018.82 1019.10 1019.33 1019.59 1019.79 1019.89 1019.59 1019.97 1020.03 1019.96 1020.18 1020.30 1019.75
999.79 1000.04 999.93 1000.12 1000.65 999.77 1000.38 1000.65 1001.68 1002.70 1003.63 1004.74 1005.71 1006.53 1007.14 1008.27 1008.85 1009.28 1010.05 1010.93 1011.44 1012.34 1013.53 1014.66 1015.82 1016.51 1016.87 1017.43 1017.37 1017.71 1017.66 1017.79 1017.66 1018.08 1018.39 1018.79 1019.35 1019.41 1019.13 1019.51 1019.70 1019.85 1019.63 1019.52 1019.79 1020.08 1020.21 1019.93 1020.20
1001.02 1000.65 1001.33 1001.05 1000.55 999.59 999.68 1000.23 1001.85 1002.49 1003.58 1004.24 1004.61 1005.66 1005.73 1006.66 1008.05 1008.64 1009.53 1010.37 1010.92 1011.63 1012.72 1013.92 1015.34 1016.21 1016.71 1017.20 1017.59 1017.58 1017.36 1017.48 1017.47 1017.85 1018.09 1018.39 1018.78 1018.78 1019.21 1019.35 1019.69 1019.79 1019.56 1019.97 1019.95 1020.33 1020.42 1020.37 1019.95
1001.54 1001.21 1000.81 1000.62 1000.03 999.03 999.91 1000.48 1002.50 1004.13 1004.43 1004.48 1004.48 1004.83 1005.79 1006.16 1007.31 1008.31 1008.84 1009.95 1010.38 1011.20 1011.93 1013.01 1014.58 1015.66 1016.36 1016.74 1017.15 1017.58 1017.77 1017.67 1017.52 1017.92 1018.23 1018.51 1018.39 1018.86 1018.67 1019.27 1019.80 1019.72 1019.83 1020.01 1020.08 1020.38 1020.44 1020.51 1020.18
1001.47 1000.62 999.38 999.09 998.77 998.81 999.59 1000.96 1004.05 1005.09 1005.41 1005.33 1005.09 1004.76 1005.54 1005.86 1006.65 1007.82 1008.61 1009.38 1010.05 1010.76 1011.47 1012.19 1013.54 1014.85 1015.72 1016.21 1016.61 1017.12 1017.49 1017.63 1017.76 1017.75 1017.57 1017.95 1017.97 1018.21 1018.38 1018.71 1019.53 1019.55 1019.74 1019.75 1020.00 1020.11 1020.36 1020.29 1020.52
1001.24 1000.45 998.99 998.19 998.13 998.51 999.57 1003.34 1005.10 1005.75 1006.05 1006.40 1006.67 1006.33 1005.87 1006.47 1006.56 1007.91 1007.90 1008.83 1009.64 1010.24 1010.95 1011.68 1012.69 1013.81 1014.73 1015.43 1016.08 1016.58 1017.01 1017.19 1016.99 1017.19 1017.72 1017.79 1018.00 1018.49 1017.91 1018.14 1018.71 1019.15 1019.44 1019.64 1020.05 1019.89 1020.01 1020.13 1020.51
1002.24 1001.34 999.85 999.19 997.62 997.90 999.33 1002.49 1003.83 1006.05 1006.99 1007.57 1007.85 1009.05 1009.70 1009.35 1008.79 1008.89 1009.47 1008.66 1008.90 1009.66 1010.35 1011.24 1012.23 1013.07 1013.93 1014.57 1015.19 1015.77 1016.25 1016.74 1016.98 1017.15 1017.54 1017.47 1017.45 1017.99 1018.59 1018.37 1018.34 1018.72 1019.15 1019.49 1019.72 1019.54 1019.73 1020.10 1020.19
1002.34 1001.52 1000.15 999.35 998.35 998.00 999.48 1002.68 1004.81 1006.59 1007.91 1008.80 1010.87 1012.04 1012.38 1011.89 1011.84 1011.55 1010.58 1010.65 1009.55 1009.53 1009.90 1010.64 1011.59 1012.45 1013.23 1013.88 1014.35 1014.93 1015.46 1015.95 1016.59 1016.76 1017.06 1017.43 1017.59 1017.64 1017.79 1018.63 1018.10 1018.49 1018.79 1019.09 1019.65 1019.66 1019.19 1019.86 1020.08
1002.38 1001.47 1000.83 1000.07 999.60 999.21 1000.05 1004.93 1006.42 1007.49 1008.59 1010.07 1012.65 1014.07 1014.27 1013.99 1013.55 1013.25 1012.91 1012.08 1011.34 1011.69 1011.52 1010.47 1010.54 1011.37 1012.18 1012.98 1013.78 1014.23 1014.89 1015.23 1015.63 1016.19 1016.40 1016.81 1017.19 1017.33 1017.60 1017.92 1018.13 1018.41 1018.44 1018.70 1019.33 1019.45 1019.11 1019.37 1019.77
Wind_Speed
12 13 11 4 3 6 3 6 9 11 10 12 13 7 16 20 11 10 24 21 22 21 18 15 13 13 13 12 12 11 11 13 12 12 10 10 9 10 10 11 13 13 13 14 14 15 15 16 16
12 6 4 3 5 3 3 6 9 4 11 16 11 10 13 17 12 22 21 23 21 21 18 16 12 13 11 12 12 10 12 11 10 11 11 9 10 9 10 10 12 13 12 13 13 14 15 16 15
12 8 2 4 5 3 6 6 6 13 16 13 14 12 12 11 22 18 24 23 21 19 18 16 13 13 12 12 11 11 10 11 10 11 10 10 10 10 10 11 12 13 12 13 13 12 14 15 15
6 2 7 4 5 10 10 4 9 18 12 8 13 12 10 10 19 22 24 21 20 19 19 15 13 12 11 11 11 10 10 10 10 11 10 9 11 10 11 11 11 12 11 12 12 12 12 13 14
1 5 4 4 4 2 6 3 6 14 12 10 2 13 14 15 15 24 22 19 19 19 18 15 12 11 11 11 10 10 11 10 9 10 11 9 11 11 11 11 12 11 11 11 11 11 13 14 13
4 3 2 4 5 2 2 1 2 5 12 12 13 19 9 13 23 21 20 19 17 18 18 15 12 10 10 10 10 10 11 10 11 10 10 10 10 11 10 12 11 12 11 11 11 13 14 14 13
7 3 4 10 6 4 3 5 4 11 14 10 10 15 15 20 22 20 17 17 16 17 17 14 14 11 10 10 10 10 11 10 11 10 10 10 10 11 10 12 12 11 11 12 14 14 14 14 11
9 5 6 15 11 4 3 4 8 6 6 9 16 9 21 23 22 19 17 16 16 16 15 12 13 13 12 12 11 10 9 10 10 10 10 11 12 11 10 12 11 10 11 13 13 13 13 13 11
15 3 3 8 10 14 10 8 2 12 6 3 6 16 24 25 22 19 16 15 14 12 17 12 13 11 8 12 11 10 11 10 10 10 9 11 8 11 11 13 10 10 10 12 11 12 14 14 12
7 1 2 8 3 15 18 13 13 4 8 11 12 25 26 24 21 19 17 15 15 14 12 12 13 9 11 10 11 7 11 6 4 6 7 2 7 9 13 11 9 9 9 8 8 10 15 15 9
8 3 3 7 15 12 12 14 10 9 9 14 20 26 26 24 20 19 17 16 14 13 10 22 8 13 8 8 9 5 5 8 7 6 2 2 6 4 5 8 8 7 10 7 9 5 4 4 4
6 16 4 9 5 11 15 14 9 5 3 13 19 24 25 23 20 19 18 16 15 11 10 19 12 7 5 8 6 4 6 4 8 8 7 4 4 5 3 0 8 5 5 3 3 4 5 5 4
8 4 3 7 6 12 14 13 11 8 6 13 18 24 23 21 20 17 17 15 15 11 10 13 12 6 3 6 11 4 6 1 8 7 6 4 5 3 1 3 4 5 7 5 2 5 2 4 7
14 10 4 4 11 11 14 13 10 9 11 14 20 24 22 20 19 17 16 15 15 11 12 13 14 9 6 6 7 4 4 4 3 5 7 2 4 3 6 4 6 4 3 6 4 5 4 2 8
5 8 10 7 10 13 14 12 11 12 13 16 21 22 21 19 18 17 16 16 15 12 13 13 12 11 9 10 6 5 8 4 2 7 7 4 4 1 4 2 1 5 6 3 4 4 2 5 6
14 13 13 10 12 10 5 11 16 12 14 16 20 20 18 19 18 16 15 15 14 13 12 12 11 12 9 10 6 6 7 6 3 5 7 8 4 2 3 3 3 7 5 4 4 2 4 5 5
15 15 13 13 13 14 11 12 18 15 14 15 18 19 18 17 17 15 16 14 14 12 13 12 10 12 10 9 7 5 9 4 2 3 7 8 5 4 4 3 5 4 4 4 4 3 2 1 5
18 17 17 12 10 11 18 20 17 15 16 14 16 18 16 17 18 16 17 15 15 13 13 11 9 12 9 9 5 5 6 5 4 2 10 8 5 5 3 5 5 7 5 4 4 1 4 4 4
17 20 14 12 15 12 10 13 21 16 13 14 11 14 13 17 16 17 16 15 15 14 13 12 10 11 9 9 8 6 7 5 1 0 6 5 5 7 5 3 5 6 3 6 4 4 3 3 2
15 21 14 13 9 9 17 20 16 18 21 16 15 16 17 16 18 17 16 15 15 14 14 13 12 12 10 8 7 5 4 5 5 6 6 5 5 6 5 7 7 4 6 4 4 1 2 3 8
17 16 13 15 7 16 14 15 12 12 11 24 20 17 18 16 19 17 18 18 15 15 15 14 13 13 11 8 3 3 2 5 6 5 7 5 6 7 4 4 4 4 2 8 5 5 2 4 2
18 16 10 12 15 12 15 9 20 20 16 11 15 18 16 18 19 19 19 17 17 16 15 15 14 14 12 9 9 7 7 7 3 7 3 8 6 6 6 5 4 5 3 6 6 5 2 5 2
11 15 3 14 14 11 16 8 7 21 18 16 17 17 15 23 19 20 19 15 15 16 16 15 15 13 12 11 8 9 10 9 6 5 8 5 6 5 7 6 5 5 6 6 5 5 4 2 4
5 13 9 9 14 14 11 15 13 8 13 4 16 17 17 19 16 19 19 16 15 17 17 16 15 13 12 13 12 8 5 7 1 10 6 5 6 9 7 7 6 5 1 5 4 4 4 4 5
11 15 12 12 12 11 16 17 12 11 7 2 11 19 15 20 20 14 16 16 15 15 17 17 16 14 15 15 14 13 9 6 6 2 3 5 6 4 11 8 7 7 6 6 6 6 4 4 4
17 20 12 12 13 14 18 9 11 11 8 7 7 2 19 15 20 17 17 14 15 15 15 16 18 16 16 15 14 11 12 9 8 8 6 8 8 3 12 10 9 8 8 7 6 7 7 6 5
18 21 23 12 14 14 14 20 12 12 12 11 12 7 7 15 12 17 13 16 15 13 15 16 15 16 16 17 12 12 12 12 9 6 7 8 4 3 4 10 9 8 8 8 9 7 8 5 6
14 14 20 10 13 17 17 18 15 14 13 12 13 21 19 21 15 9 8 5 12 16 17 16 16 15 16 16 15 13 14 13 11 9 8 7 6 14 4 6 10 10 8 7 7 6 7 6 7
13 14 20 13 16 13 12 11 19 14 14 14 21 17 14 15 15 17 12 6 11 8 10 15 16 16 15 14 13 13 13 14 13 12 11 10 8 8 7 14 7 10 9 10 8 9 5 9 8
12 13 16 12 19 14 4 11 14 16 16 20 17 12 14 16 16 15 14 16 18 16 16 8 14 16 15 14 13 14 13 13 14 13 14 13 11 10 9 9 8 10 9 9 10 10 9 9 9
Wind_Direction
189 203 224 208 244 229 149 96 127 136 100 107 126 112 74 29 38 82 138 138 140 131 130 141 129 124 120 109 106 104 94 92 93 91 89 94 90 85 84 83 84 88 82 86 86 82 85 87 89
203 146 231 261 246 217 62 71 94 113 106 110 108 107 121 62 100 125 132 134 139 132 147 134 128 130 121 116 110 105 94 93 92 87 87 85 99 92 90 87 84 85 85 85 87 84 89 88 91
244 225 256 231 264 61 111 96 144 122 127 124 126 65 39 95 123 122 128 139 139 141 128 118 129 127 125 120 111 103 101 98 93 88 86 87 87 100 93 92 89 86 89 90 91 88 94 93 94
159 213 249 259 88 40 101 112 201 135 84 113 109 89 90 111 127 123 135 147 137 138 119 127 125 125 128 121 113 106 106 98 90 87 89 89 97 98 104 95 95 94 95 92 90 91 97 97 96
112 243 236 208 92 349 78 311 165 142 121 97 115 96 107 128 121 133 143 146 145 131 122 131 130 127 119 116 109 107 103 101 100 94 90 89 91 95 94 100 98 97 94 89 85 92 110 99 95
248 252 240 128 99 118 176 238 118 149 123 136 117 114 110 132 137 141 152 146 143 124 140 133 133 128 123 118 111 108 105 98 89 90 91 100 98 104 112 110 108 102 95 88 84 97 106 101 99
264 252 117 123 117 146 185 38 202 206 129 149 124 108 125 150 145 146 156 144 138 137 117 139 138 132 126 120 112 111 104 101 96 96 100 103 103 105 104 105 101 100 96 87 98 98 106 102 105
241 276 167 135 150 181 71 60 345 326 107 142 143 138 148 143 150 152 148 144 139 126 118 145 137 148 157 142 119 117 117 103 109 111 109 119 118 117 113 124 104 100 95 92 99 103 103 109 110
257 300 317 79 135 141 170 135 69 265 200 128 126 141 137 145 150 150 147 148 129 138 150 130 153 114 125 132 122 134 124 126 126 131 132 174 131 132 130 79 105 101 97 91 104 121 128 130 131
238 204 78 114 55 147 170 147 158 236 179 146 124 121 139 151 154 150 154 145 149 137 167 139 106 139 175 136 162 147 121 131 157 132 171 234 89 56 88 101 113 112 114 116 142 160 162 181 147
216 262 95 92 97 139 161 148 155 181 170 143 133 141 150 153 157 157 155 150 144 157 158 108 133 186 118 117 149 150 191 138 120 142 150 69 121 96 110 140 147 147 187 159 183 176 217 31 57
254 235 120 91 85 100 156 145 158 182 240 136 142 150 154 159 162 161 155 154 141 160 142 121 135 82 306 152 145 186 112 170 138 100 129 142 159 196 91 251 89 199 107 65 40 93 43 122 100
228 200 160 137 141 114 144 160 113 158 144 128 143 156 159 163 162 159 151 148 145 159 138 121 123 156 103 214 88 77 135 116 114 158 132 151 99 135 154 115 121 99 150 142 161 103 105 57 92
181 242 177 178 133 150 134 137 156 111 107 135 155 159 164 163 161 155 155 153 151 164 149 131 134 157 175 92 97 119 67 147 122 87 106 118 125 141 127 155 150 125 65 77 62 55 154 170 113
242 230 220 210 164 151 153 150 128 129 140 145 159 163 166 163 158 160 156 155 157 177 149 143 153 152 164 126 168 147 188 93 14 126 126 53 89 130 117 191 168 111 81 108 130 183 210 121 98
228 222 201 173 161 135 123 183 126 141 141 151 162 166 167 165 163 164 160 159 155 173 159 158 164 147 165 140 181 185 117 106 184 147 147 144 145 178 235 171 297 105 173 170 148 203 192 202 104
211 198 222 154 188 158 142 197 142 151 151 161 168 169 172 170 169 168 163 166 157 161 165 168 160 155 165 149 183 181 101 170 109 191 115 130 151 162 261 176 120 197 163 198 165 142 205 221 130
193 213 194 167 169 198 135 125 139 154 151 173 170 178 179 176 176 169 169 171 164 154 162 176 173 142 169 163 172 168 160 145 242 164 129 134 163 150 207 125 148 237 181 157 61 40 80 261 31
206 229 197 165 150 206 140 118 137 152 159 165 190 180 184 200 170 167 174 173 165 162 163 171 176 148 179 169 186 169 148 118 360 138 116 121 141 147 179 239 171 234 179 77 138 151 224 277 350
247 217 199 126 148 252 150 160 135 162 155 170 184 197 188 197 168 169 174 170 169 168 168 170 172 159 196 175 206 196 124 185 178 114 136 175 166 149 180 226 176 235 118 144 182 23 325 212 103
234 219 186 155 170 245 159 138 154 168 181 166 176 194 188 186 175 171 176 170 174 172 175 174 176 167 199 195 181 184 4 169 170 140 157 172 170 166 184 242 55 185 186 164 185 222 228 326 120
206 236 180 192 192 203 221 175 170 162 166 190 176 183 180 179 194 173 171 182 178 168 179 171 178 175 187 211 159 161 217 209 162 172 140 143 159 184 179 190 163 229 137 160 182 189 64 234 158
236 212 251 171 218 200 183 226 172 156 170 173 179 181 174 178 205 183 183 184 176 168 172 172 177 181 183 194 253 171 244 116 238 72 146 126 137 203 185 179 188 212 245 129 187 110 268 196 266
266 158 211 211 235 243 194 228 181 118 111 140 174 182 193 164 185 188 184 179 180 174 170 171 176 183 194 190 202 233 221 277 246 139 169 183 176 182 180 189 187 200 214 161 177 179 241 316 336
183 192 186 201 214 226 208 208 81 95 94 186 199 172 197 169 167 205 177 171 178 180 182 171 172 186 192 195 196 203 210 234 277 129 191 205 224 255 153 161 190 187 219 176 230 191 242 234 272
203 210 200 189 205 201 185 150 107 102 101 66 73 209 174 211 161 173 184 177 185 186 186 189 166 184 194 202 204 199 200 209 215 197 260 196 207 271 152 168 184 211 185 197 204 192 232 202 223
196 236 236 277 198 215 116 100 118 115 109 113 99 62 113 185 173 161 205 175 178 188 187 190 184 182 196 200 202 203 202 220 209 230 200 200 196 19 241 169 175 197 193 208 178 238 202 176 217
269 222 240 242 240 208 147 158 131 139 107 88 84 52 29 18 21 31 348 239 182 186 190 194 193 192 199 207 199 204 205 207 216 199 217 239 261 173 151 260 182 186 190 205 213 209 181 219 211
211 241 237 233 258 215 151 107 116 117 117 108 68 50 42 38 36 22 13 287 291 203 188 194 195 197 202 209 211 205 207 204 206 208 203 211 229 256 189 222 199 189 202 195 210 269 201 202 220
298 232 237 242 228 269 327 95 119 130 120 97 85 76 52 44 41 24 22 13 20 23 359 293 193 195 202 206 210 210 213 212 203 210 207 198 209 218 230 231 198 247 218 197 211 218 238 206 214